x

8419317 - Wells, Me (welm1) Weather Station

12:54 - Mon 22nd May 2017 All times are EDT. -4 hours from GMT.

  • Wind
    15mph, 18mph gusts
  • Sea Temp 51°f
  • Aire Temp 53°f
  • Sea Pressure 1021.2mb
  • 8419317 - Wells, Me
  • 8419317 - Wells, Me

More Historic Weather Station data

Upgrade to MSW Pro to gain access to the past 30 days of data for over 8000 Wavebouys and Weather Stations around the globe.

Join Pro

Comparision Forecast

View Surf forecast
   
lun 05/22 12:54 15 18 mph 1021.2mb 51f 53f
12:48 13 16 mph 1021.4mb 51f 54f
12:42 11 14 mph 1021.5mb 51f 53f
12:36 9 13 mph 1021.7mb 51f 53f
12:30 10 11 mph 1021.9mb 51f 53f
12:24 9 10 mph 1022mb 51f 53f
12:18 9 11 mph 1022.1mb 51f 53f
12:12 9 11 mph 1022.1mb 51f 53f
12:06 9 10 mph 1022.1mb 51f 53f
12:00 9 9 mph 1022.2mb 51f 53f
11:54 9 9 mph 1022.3mb 50f 53f
11:48 8 9 mph 1022.3mb 50f 53f
11:42 8 9 mph 1022.2mb 50f 53f
11:36 8 9 mph 1022.3mb 50f 53f
11:30 8 10 mph 1022.4mb 50f 53f
11:24 8 10 mph 1022.4mb 50f 53f
11:18 10 13 mph 1022.3mb 50f 53f
11:12 10 13 mph 1022.2mb 50f 53f
11:06 9 11 mph 1022.4mb 50f 53f
11:00 8 10 mph 1022.6mb 50f 53f
10:54 8 10 mph 1022.7mb 50f 52f
10:48 9 11 mph 1022.7mb 50f 52f
10:42 9 10 mph 1022.8mb 50f 52f
10:36 9 10 mph 1022.7mb 50f 52f
10:30 10 11 mph 1022.9mb 50f 52f
10:24 7 8 mph 1023.2mb 50f 52f
10:18 6 9 mph 1023.2mb 50f 52f
10:12 8 9 mph 1023.1mb 50f 52f
10:06 6 8 mph 1023mb 50f 52f
10:00 7 8 mph 1023mb 50f 52f
9:30 3 5 mph 1023.1mb 49f 52f
9:24 3 6 mph 1023.1mb 50f 52f
9:18 5 5 mph 1023mb 50f 52f
9:12 3 5 mph 1023mb 50f 52f
9:06 3 8 mph 1023mb 50f 52f
9:00 3 6 mph 1023.1mb 50f 51f
8:54 3 7 mph 1023.1mb 50f 51f
8:48 3 6 mph 1023.2mb 50f 51f
8:42 3 5 mph 1023.2mb 50f 51f
8:36 2 6 mph 1023.3mb 50f 51f
8:30 2 3 mph 1023.4mb 50f 51f
8:24 2 5 mph 1023.4mb 50f 51f
8:18 3 6 mph 1023.5mb 50f 51f
8:12 5 6 mph 1023.7mb 50f 51f
8:06 5 7 mph 1023.7mb 50f 51f
8:00 5 7 mph 1023.8mb 50f 51f
7:54 5 6 mph 1023.7mb 50f 51f
7:48 3 5 mph 1023.8mb 50f 51f
7:42 2 5 mph 1023.7mb 50f 51f
7:36 3 6 mph 1023.7mb 50f 51f
7:30 3 6 mph 1023.8mb 50f 51f
7:24 5 6 mph 1023.6mb 50f 51f
7:18 5 6 mph 1023.6mb 50f 51f
7:12 3 10 mph 1023.7mb 50f 51f
7:06 2 6 mph 1023.8mb 50f 51f
7:00 2 5 mph 1023.8mb 50f 51f
6:54 3 5 mph 1023.7mb 50f 51f
6:48 1 3 mph 1023.6mb 50f 51f
6:42 2 6 mph 1023.6mb 50f 51f
6:36 5 6 mph 1023.6mb 50f 51f
6:30 3 5 mph 1023.4mb 50f 51f
6:24 2 3 mph 1023.2mb 50f 51f
6:18 2 2 mph 1023.1mb 50f 51f
6:12 2 2 mph 1023mb 51f 51f
6:06 1 3 mph 1023mb 51f 51f
6:00 2 3 mph 1023.2mb 51f 51f
5:54 3 6 mph 1023.1mb 51f 51f
5:48  -  2 mph 1022.9mb 51f 51f
5:42 3 5 mph 1022.8mb 51f 52f
5:36 3 5 mph 1022.8mb 51f 52f
5:30 2 3 mph 1022.8mb 51f 51f
5:24 2 5 mph 1022.9mb 51f 52f
5:18 3 5 mph 1022.9mb 51f 52f
5:12 3 5 mph 1023mb 52f 51f
5:06 3 5 mph 1023mb 52f 52f
5:00 2 3 mph 1023.1mb 53f 52f
4:54 2 5 mph 1023mb 53f 52f
4:48 3 5 mph 1023mb 53f 52f
4:42 2 2 mph 1023mb 54f 52f
4:36  -  3 mph 1022.9mb 54f 52f
4:30 2 2 mph 1022.8mb 54f 52f
4:24  -  3 mph 1022.9mb 55f 52f
4:18 3 6 mph 1022.9mb 55f 52f
4:12 3 7 mph 1023mb 55f 52f
4:06 3 6 mph 1023mb 55f 52f
4:00 2 5 mph 1023.2mb 55f 52f
3:54 2 5 mph 1023.1mb 55f 52f
3:48 3 5 mph 1023.1mb 55f 52f
3:42 2 3 mph 1023mb 55f 52f
3:36 2 3 mph 1023mb 54f 52f
3:30 1 2 mph 1022.9mb 54f 52f
3:24 1 2 mph 1022.9mb 54f 53f
3:18 1 2 mph 1022.9mb 54f 52f
3:12 2 5 mph 1022.8mb 53f 52f
3:06 2 3 mph 1022.9mb 53f 52f
3:00 2 3 mph 1022.7mb 53f 52f
2:54 2 3 mph 1022.7mb 53f 52f
2:48 2 3 mph 1022.8mb 53f 53f
2:42 2 3 mph 1022.8mb 53f 53f
2:36 2 2 mph 1022.8mb 53f 53f
2:30 2 5 mph 1022.9mb 53f 54f
2:24 5 5 mph 1022.8mb 53f 54f
2:18 1 2 mph 1022.6mb 53f 54f
2:12 2 2 mph 1023mb 53f 54f
2:06 2 3 mph 1023.2mb 53f 54f
2:00 2 3 mph 1023.3mb 53f 54f
1:54 3 5 mph 1023.3mb 53f 55f
1:48 3 5 mph 1023.3mb 53f 55f
1:42 3 5 mph 1023.4mb 53f 55f
1:36 2 3 mph 1023.5mb 53f 55f
1:30 3 5 mph 1023.6mb 53f 55f
1:24 3 5 mph 1023.7mb 53f 55f
1:18 3 5 mph 1023.7mb 53f 55f
1:12 2 5 mph 1023.7mb 53f 55f
1:06 5 6 mph 1023.7mb 53f 55f
1:00 5 6 mph 1023.6mb 53f 55f
12:54 3 5 mph 1023.5mb 53f 56f
12:48 3 5 mph 1023.6mb 53f 56f
12:42 3 5 mph 1023.7mb 53f 56f
12:36 2 3 mph 1023.7mb 53f 56f
12:30 1 2 mph 1023.8mb 53f 56f
12:24 1 3 mph 1023.8mb 53f 56f
12:18 2 3 mph 1023.9mb 52f 56f
12:12 3 3 mph 1024mb 52f 56f
12:06 3 5 mph 1024mb 52f 56f
12:00 2 5 mph 1024.1mb 52f 56f
dom 05/21 11:54 3 5 mph 1024.1mb 52f 56f
11:48 2 5 mph 1024.1mb 52f 56f
11:42 3 7 mph 1024.1mb 52f 56f
11:36 6 7 mph 1024.1mb 52f 56f
11:30 7 8 mph 1024.1mb 52f 56f
11:24 7 8 mph 1024.1mb 52f 56f
11:18 8 10 mph 1024.1mb 52f 56f
11:12 7 9 mph 1024.1mb 52f 56f
11:06 6 8 mph 1024.2mb 52f 56f
11:00 6 8 mph 1024.4mb 52f 56f
10:54 6 7 mph 1024.6mb 52f 56f
10:48 2 3 mph 1024.6mb 52f 54f
10:42 3 5 mph 1024.6mb 52f 55f
10:36 3 5 mph 1024.5mb 52f 55f
10:30 3 6 mph 1024.5mb 52f 55f
10:24 6 8 mph 1024.4mb 52f 54f
10:18 7 8 mph 1024.3mb 52f 55f
10:12 7 9 mph 1024.3mb 52f 55f
10:06 8 9 mph 1024.3mb 52f 56f
10:00 7 10 mph 1024.7mb 52f 56f
9:54 9 11 mph 1024.8mb 51f 56f
9:48 10 13 mph 1025mb 51f 56f
9:42 8 9 mph 1025.1mb 51f 56f
9:36 7 8 mph 1025.1mb 51f 56f
9:30 7 8 mph 1025.2mb 52f 56f
9:24 7 8 mph 1025.2mb 52f 56f
9:18 7 7 mph 1025.3mb 52f 56f
9:12 6 7 mph 1025.3mb 52f 55f
9:06 6 8 mph 1025.4mb 52f 55f
9:00 5 6 mph 1025.4mb 52f 55f
8:54 5 6 mph 1025.4mb 52f 55f
8:48 5 6 mph 1025.5mb 51f 54f
8:42 5 6 mph 1025.5mb 51f 54f
8:36 5 6 mph 1025.4mb 51f 55f
8:30 5 6 mph 1025.5mb 51f 55f
8:24 6 6 mph 1025.5mb 51f 55f
8:18 5 6 mph 1025.4mb 51f 55f
8:12 6 6 mph 1025.5mb 51f 55f
8:06 5 7 mph 1025.4mb 51f 55f
8:00 7 8 mph 1025.4mb 51f 55f
7:54 8 9 mph 1025.4mb 52f 55f
7:48 8 8 mph 1025.4mb 52f 55f
7:42 7 8 mph 1025.5mb 52f 55f
7:36 8 9 mph 1025.5mb 52f 55f
7:30 8 9 mph 1025.5mb 52f 55f
7:24 8 11 mph 1025.5mb 52f 55f
7:18 11 15 mph 1025.5mb 52f 55f
7:12 13 14 mph 1025.6mb 52f 55f
7:06 11 14 mph 1025.6mb 52f 55f
7:00 13 14 mph 1025.6mb 52f 55f
6:54 11 14 mph 1025.5mb 52f 55f
6:48 13 14 mph 1025.4mb 52f 55f
6:42 10 13 mph 1025.4mb 52f 55f
6:36 11 14 mph 1025.4mb 52f 55f
6:30 10 14 mph 1025.5mb 52f 56f
6:24 13 14 mph 1025.4mb 52f 55f
6:18 11 14 mph 1025.5mb 52f 55f
6:12 13 15 mph 1025.5mb 52f 55f
6:06 13 15 mph 1025.5mb 52f 56f
6:00 11 14 mph 1025.5mb 52f 56f
5:48 13 16 mph 1025.6mb 52f 56f
5:42 14 16 mph 1025.6mb 52f 56f
5:36 14 16 mph 1025.7mb 52f 56f
5:30 14 17 mph 1025.7mb 52f 56f
5:24 15 18 mph 1025.7mb 52f 56f
5:18 15 17 mph 1025.7mb 53f 56f
5:12 14 17 mph 1025.7mb 53f 56f
5:06 16 20 mph 1025.7mb 54f 56f
5:00 15 18 mph 1025.7mb 55f 57f
4:54 15 20 mph 1025.8mb 55f 57f
4:48 20 22 mph 1025.9mb 56f 56f
4:42 18 22 mph 1025.9mb 56f 56f
4:36 17 21 mph 1025.8mb 56f 56f
4:30 18 22 mph 1026mb 56f 56f
4:24 18 23 mph 1026mb 56f 56f
4:18 17 21 mph 1026mb 56f 57f
4:12 17 21 mph 1026mb 56f 57f
4:06 17 21 mph 1026mb 56f 57f
4:00 18 21 mph 1026.1mb 56f 57f
3:54 16 20 mph 1026.1mb 56f 57f
3:48 18 21 mph 1026.2mb 56f 57f
3:42 16 18 mph 1026.3mb 55f 57f
3:36 17 21 mph 1026.4mb 55f 57f
3:30 18 22 mph 1026.5mb 55f 57f
3:24 17 20 mph 1026.6mb 55f 57f
3:18 15 20 mph 1026.7mb 55f 57f
3:12 16 22 mph 1026.8mb 55f 57f
3:06 16 20 mph 1026.8mb 55f 56f
3:00 14 20 mph 1026.8mb 54f 56f
2:54 15 18 mph 1027mb 54f 56f
2:48 15 18 mph 1027mb 54f 56f
2:42 14 16 mph 1027mb 54f 57f
2:36 15 18 mph 1027.2mb 54f 57f
2:30 15 18 mph 1027.3mb 54f 57f
2:24 14 16 mph 1027.5mb 54f 56f
2:18 14 16 mph 1027.7mb 54f 56f
2:12 15 18 mph 1027.7mb 54f 56f
2:06 15 17 mph 1027.8mb 54f 56f
2:00 14 17 mph 1027.8mb 54f 56f
1:54 15 18 mph 1027.8mb 54f 56f
1:48 15 17 mph 1027.9mb 54f 56f
1:42 15 18 mph 1028mb 53f 56f
1:36 14 17 mph 1028.1mb 53f 56f
1:30 13 15 mph 1028.2mb 53f 56f
1:24 13 15 mph 1028.3mb 53f 56f
1:18 11 15 mph 1028.3mb 53f 57f
1:12 13 15 mph 1028.4mb 53f 57f
1:06 10 14 mph 1028.4mb 53f 57f
1:00 9 13 mph 1028.4mb 53f 57f
12:54 10 13 mph 1028.3mb 53f 57f
12:48 10 13 mph 1028.4mb 53f 56f
12:42 9 11 mph 1028.5mb 53f 57f
12:36 9 11 mph 1028.5mb 53f 56f
12:30 8 10 mph 1028.6mb 53f 57f
12:24 7 10 mph 1028.7mb 53f 57f
12:18 8 9 mph 1028.7mb 52f 57f
12:12 8 9 mph 1028.9mb 52f 56f
12:06 9 10 mph 1028.9mb 52f 56f
12:00 8 10 mph 1028.9mb 52f 57f
11:54 8 10 mph 1029mb 52f 57f
11:48 8 10 mph 1029.1mb 52f 57f
11:42 7 10 mph 1029.2mb 52f 57f
11:36 8 10 mph 1029.4mb 52f 57f
11:30 7 10 mph 1029.6mb 52f 57f
11:24 8 10 mph 1029.7mb 52f 57f
11:18 9 10 mph 1029.7mb 51f 57f
11:12 9 10 mph 1029.8mb 51f 57f
11:06 9 10 mph 1029.8mb 51f 57f
11:00 8 9 mph 1029.8mb 51f 57f
10:54 8 9 mph 1029.8mb 51f 57f
10:48 8 9 mph 1029.8mb 52f 57f
10:42 8 9 mph 1029.7mb 52f 57f
10:36 8 10 mph 1029.8mb 51f 57f
10:30 8 9 mph 1029.8mb 51f 57f
10:24 7 9 mph 1029.9mb 51f 57f
10:18 7 8 mph 1029.9mb 51f 57f
10:12 7 8 mph 1029.8mb 51f 57f
10:06 7 9 mph 1029.9mb 50f 57f
10:00 7 8 mph 1029.8mb 50f 57f
9:54 7 8 mph 1029.8mb 50f 58f
9:48 6 7 mph 1029.9mb 50f 58f
9:42 6 6 mph 1029.9mb 50f 58f
9:36 5 6 mph 1029.8mb 50f 58f
9:30 6 6 mph 1029.8mb 50f 59f
9:24 6 6 mph 1029.9mb 50f 59f
9:18 5 6 mph 1030mb 50f 59f
9:12 3 5 mph 1030mb 50f 59f
9:06 3 5 mph 1030mb 50f 57f
9:00 3 5 mph 1030mb 50f 57f
8:54 3 6 mph 1030mb 50f 57f
8:48 3 6 mph 1029.9mb 50f 57f
8:42 5 6 mph 1029.8mb 50f 57f
8:36 5 7 mph 1029.8mb 50f 57f
8:30 5 7 mph 1029.8mb 50f 57f
8:24 5 7 mph 1029.9mb 50f 57f
8:18 3 6 mph 1029.9mb 50f 56f
8:12 5 6 mph 1029.9mb 50f 56f
8:06 5 7 mph 1030mb 50f 55f
8:00 6 8 mph 1030mb 50f 55f
7:54 7 9 mph 1030.1mb 50f 55f
7:48 7 10 mph 1030.1mb 50f 54f
7:42 7 8 mph 1030mb 50f 54f
7:36 8 9 mph 1030mb 50f 53f
7:30 7 8 mph 1029.9mb 50f 53f
7:24 6 8 mph 1029.9mb 50f 53f
7:18 7 8 mph 1029.9mb 50f 52f
7:12 7 8 mph 1029.8mb 50f 52f
7:06 8 9 mph 1029.9mb 50f 52f
7:00 3 7 mph 1030mb 50f 53f
6:54 5 8 mph 1030.2mb 50f 52f
6:48 5 7 mph 1030.1mb 50f 52f
6:42 5 8 mph 1030.1mb 50f 52f
6:36 6 7 mph 1030mb 50f 51f
6:30 7 9 mph 1029.9mb 50f 50f
6:24 8 9 mph 1029.7mb 50f 49f
6:18 7 9 mph 1029.6mb 50f 49f
6:12 9 10 mph 1029.5mb 50f 48f
6:06 9 11 mph 1029.4mb 50f 48f
6:00 9 10 mph 1029.5mb 50f 49f
5:54 9 9 mph 1029.5mb 51f 48f
5:48 9 10 mph 1029.5mb 51f 48f
5:42 8 10 mph 1029.5mb 51f 48f
5:36 8 9 mph 1029.5mb 51f 47f
5:30 8 9 mph 1029.4mb 51f 47f
5:24 9 9 mph 1029.3mb 51f 47f
5:18 9 9 mph 1029.2mb 51f 47f
5:12 8 9 mph 1029.1mb 51f 47f
5:06 9 10 mph 1029mb 51f 47f
5:00 9 10 mph 1028.9mb 51f 47f
4:54 8 9 mph 1028.9mb 51f 47f
4:48 8 9 mph 1028.9mb 51f 47f
4:42 8 10 mph 1028.9mb 51f 48f
4:36 9 10 mph 1028.8mb 51f 48f
4:30 8 9 mph 1028.8mb 52f 47f
4:24 8 10 mph 1028.7mb 52f 48f
4:18 9 10 mph 1028.6mb 53f 48f
4:12 9 10 mph 1028.5mb 54f 48f
4:06 8 9 mph 1028.6mb 54f 48f
4:00 8 9 mph 1028.6mb 54f 48f
3:54 8 9 mph 1028.5mb 54f 48f
3:48 8 10 mph 1028.6mb 55f 48f
3:42 9 9 mph 1028.4mb 55f 48f
3:36 9 10 mph 1028.4mb 55f 48f
3:30 9 10 mph 1028.2mb 55f 48f
3:24 9 10 mph 1028.1mb 55f 48f
3:18 9 10 mph 1028.1mb 55f 48f
3:12 10 10 mph 1028mb 55f 48f
3:06 8 9 mph 1028mb 55f 48f
3:00 9 10 mph 1027.9mb 55f 49f
2:54 8 9 mph 1027.9mb 55f 49f
2:48 9 11 mph 1027.9mb 55f 49f
2:42 9 10 mph 1027.8mb 55f 49f
2:36 8 10 mph 1027.8mb 55f 49f
2:30 9 11 mph 1027.9mb 55f 50f
2:24 9 10 mph 1027.9mb 54f 50f
2:18 9 10 mph 1027.9mb 54f 51f
2:12 9 10 mph 1027.8mb 54f 51f
2:06 9 11 mph 1027.9mb 54f 51f
2:00 9 10 mph 1027.9mb 54f 51f
1:54 9 10 mph 1027.9mb 54f 51f
1:48 9 10 mph 1027.9mb 54f 51f
1:42 9 10 mph 1027.9mb 54f 52f
1:36 9 10 mph 1027.9mb 54f 51f
1:30 9 10 mph 1027.8mb 54f 51f
1:24 9 11 mph 1027.8mb 54f 52f
1:18 10 10 mph 1027.8mb 54f 52f
1:12 9 10 mph 1027.7mb 54f 52f
1:06 10 11 mph 1027.7mb 53f 52f
1:00 9 11 mph 1027.7mb 53f 52f
12:54 10 10 mph 1027.6mb 53f 52f
12:48 9 10 mph 1027.6mb 53f 53f
12:42 9 10 mph 1027.6mb 53f 53f
12:36 8 9 mph 1027.6mb 53f 52f
12:30 7 7 mph 1027.5mb 53f 52f
12:24 6 7 mph 1027.5mb 53f 51f
12:18 6 7 mph 1027.4mb 54f 52f
12:12 6 7 mph 1027.4mb 54f 51f
12:06 5 6 mph 1027.3mb 54f 51f
12:00 5 6 mph 1027.3mb 54f 50f
sáb 05/20 11:54 2 6 mph 1027.3mb 54f 50f
11:48 5 6 mph 1027.3mb 54f 49f
11:42 5 5 mph 1027.3mb 54f 50f
11:36 3 5 mph 1027.3mb 54f 50f
11:30 2 3 mph 1027.3mb 53f 49f
11:24 3 5 mph 1027.3mb 53f 49f
11:18 5 6 mph 1027.2mb 53f 50f
11:12 5 5 mph 1027.2mb 53f 52f
11:06 2 3 mph 1027.2mb 53f 52f
11:00 2 5 mph 1027.1mb 53f 51f
10:54 5 6 mph 1027.1mb 53f 53f
10:48 3 5 mph 1027.1mb 53f 53f
10:42 2 5 mph 1027mb 53f 52f
10:36 2 5 mph 1027mb 53f 52f
10:30 2 5 mph 1027mb 53f 52f
10:24 1 3 mph 1027mb 53f 51f
10:18 2 3 mph 1026.9mb 53f 51f
10:12 3 5 mph 1027mb 53f 52f
10:06 3 5 mph 1026.9mb 53f 51f
10:00 2 6 mph 1026.8mb 53f 50f
9:54 5 6 mph 1026.8mb 53f 51f
9:48 5 6 mph 1026.6mb 52f 51f
9:42 3 5 mph 1026.4mb 52f 49f
9:36 3 6 mph 1026.3mb 52f 49f
9:30 3 5 mph 1026.3mb 52f 50f
9:24 2 5 mph 1026.2mb 52f 51f
9:18  -  2 mph 1026.2mb 52f 52f
9:12  -  1 mph 1026.1mb 52f 52f
9:06  -  2 mph 1026.1mb 52f 52f
9:00  -  1 mph 1026mb 52f 52f
8:54 1 2 mph 1026mb 52f 53f
8:48  -  2 mph 1025.9mb 52f 55f
8:42 1 2 mph 1025.8mb 52f 55f
8:36 1 1 mph 1025.6mb 52f 55f
8:30 1 2 mph 1025.6mb 52f 56f
8:24 1 2 mph 1025.4mb 52f 56f
8:18 1 5 mph 1025.4mb 52f 57f
8:12 3 6 mph 1025.3mb 52f 57f
8:06 3 5 mph 1025.2mb 52f 57f
8:00 3 6 mph 1025.2mb 52f 58f
7:54 3 6 mph 1025.2mb 52f 58f
7:48 3 6 mph 1025.2mb 52f 58f
7:42 5 8 mph 1025.1mb 52f 58f
7:36 6 7 mph 1025.1mb 52f 58f
7:30 6 7 mph 1025mb 52f 58f
7:24 7 9 mph 1024.9mb 52f 58f
7:18 8 9 mph 1025mb 52f 58f
7:12 8 10 mph 1024.9mb 52f 58f
7:06 10 10 mph 1025.1mb 52f 57f
7:00 8 11 mph 1025mb 52f 56f
6:54 10 11 mph 1025.1mb 52f 56f
6:48 10 14 mph 1025mb 52f 56f
6:42 11 13 mph 1024.9mb 52f 56f
6:36 10 14 mph 1024.8mb 52f 56f
6:30 11 14 mph 1024.8mb 52f 55f
6:24 13 15 mph 1024.9mb 52f 55f
6:18 13 14 mph 1024.9mb 52f 55f
6:12 13 14 mph 1024.7mb 52f 56f
6:06 11 14 mph 1024.7mb 52f 55f
6:00 13 15 mph 1024.8mb 52f 55f
5:54 11 13 mph 1024.8mb 52f 55f
5:48 11 13 mph 1024.9mb 52f 55f
5:42 11 15 mph 1024.8mb 52f 55f
5:36 10 14 mph 1024.8mb 52f 55f
5:30 10 15 mph 1024.8mb 52f 55f
5:24 11 15 mph 1024.8mb 52f 55f
5:18 14 16 mph 1024.8mb 52f 55f
5:12 13 15 mph 1024.8mb 52f 55f
5:06 14 15 mph 1024.7mb 52f 55f
5:00 14 16 mph 1024.9mb 52f 55f
4:54 13 15 mph 1025mb 52f 54f
4:48 13 14 mph 1025mb 52f 55f
4:42 11 14 mph 1025.2mb 52f 55f
4:36 11 15 mph 1025.2mb 52f 54f
4:30 14 16 mph 1025.3mb 53f 54f
4:24 14 16 mph 1025.3mb 53f 54f
4:18 13 15 mph 1025.2mb 53f 54f
4:12 14 16 mph 1025.2mb 53f 54f
4:06 15 16 mph 1025.3mb 53f 54f
4:00 14 17 mph 1025.2mb 53f 54f
3:54 14 17 mph 1025.2mb 53f 54f
3:48 14 18 mph 1025.3mb 53f 54f
3:42 15 18 mph 1025.3mb 53f 54f
3:36 15 18 mph 1025.2mb 53f 53f
3:30 14 17 mph 1025.3mb 53f 54f
3:24 14 16 mph 1025.4mb 53f 54f
3:18 14 16 mph 1025.4mb 52f 54f
3:12 14 17 mph 1025.5mb 52f 54f
3:06 15 17 mph 1025.5mb 52f 54f
3:00 15 17 mph 1025.4mb 52f 54f
2:54 13 15 mph 1025.5mb 53f 54f
2:48 13 14 mph 1025.6mb 53f 54f
2:42 13 17 mph 1025.7mb 53f 53f
2:36 13 15 mph 1025.6mb 53f 54f
2:30 13 15 mph 1025.7mb 53f 53f
2:18 10 14 mph 1025.7mb 53f 54f
2:12 11 13 mph 1025.7mb 51f 54f
2:06 11 14 mph 1025.7mb 50f 54f
2:00 10 13 mph 1025.6mb 50f 54f
1:54 10 13 mph 1025.6mb 50f 54f
1:48 10 14 mph 1025.6mb 49f 54f
1:42 10 13 mph 1025.6mb 49f 54f
1:36 10 13 mph 1025.5mb 49f 54f
1:30 10 13 mph 1025.5mb 49f 54f
1:24 9 11 mph 1025.6mb 49f 54f
1:18 9 10 mph 1025.6mb 49f 54f
1:12 9 11 mph 1025.6mb 49f 54f
1:06 8 11 mph 1025.5mb 49f 54f
1:00 8 10 mph 1025.6mb 49f 54f
12:54 8 10 mph 1025.6mb 49f 54f
12:48 9 11 mph 1025.6mb 49f 54f
12:42 8 11 mph 1025.6mb 49f 54f
12:36 9 10 mph 1025.5mb 49f 54f
12:30 10 13 mph 1025.5mb 49f 54f
12:24 9 11 mph 1025.5mb 48f 54f
12:18 9 13 mph 1025.5mb 48f 53f
12:12 9 11 mph 1025.5mb 48f 54f
12:06 9 11 mph 1025.6mb 48f 54f
12:00 8 11 mph 1025.6mb 48f 54f
11:54 9 11 mph 1025.6mb 48f 54f
11:48 9 11 mph 1025.6mb 48f 54f
11:42 9 13 mph 1025.6mb 47f 54f
11:36 9 11 mph 1025.6mb 47f 54f
11:30 7 11 mph 1025.5mb 47f 54f
11:24 8 14 mph 1025.4mb 47f 53f
11:18 9 14 mph 1025.5mb 47f 54f
11:12 9 13 mph 1025.4mb 47f 53f
11:06 10 14 mph 1025.6mb 47f 53f
11:00 11 14 mph 1025.5mb 47f 54f
10:54 10 14 mph 1025.6mb 47f 54f
10:48 9 14 mph 1025.5mb 47f 55f
10:42 8 13 mph 1025.5mb 47f 53f
10:36 8 14 mph 1025.6mb 46f 55f
10:30 9 13 mph 1025.6mb 46f 54f
10:24 7 14 mph 1025.7mb 46f 56f
10:18 7 16 mph 1025.7mb 46f 56f
10:12 9 15 mph 1025.7mb 46f 56f
10:06 8 10 mph 1025.8mb 46f 56f
10:00 6 10 mph 1025.8mb 46f 56f
9:54 6 13 mph 1026mb 46f 56f
9:48 9 11 mph 1026mb 46f 55f
9:42 11 15 mph 1025.9mb 46f 55f
9:36 8 11 mph 1025.9mb 46f 55f
9:30 8 13 mph 1026mb 46f 55f
9:24 9 15 mph 1025.9mb 46f 55f
9:18 9 15 mph 1025.9mb 46f 55f
9:12 13 16 mph 1025.8mb 45f 55f
9:06 10 17 mph 1025.8mb 45f 54f
9:00 13 17 mph 1025.8mb 45f 55f
8:54 10 15 mph 1025.8mb 45f 54f
8:48 14 17 mph 1025.8mb 45f 54f
8:42 14 17 mph 1025.7mb 45f 54f
8:36 13 17 mph 1025.7mb 45f 54f
8:30 11 17 mph 1025.7mb 45f 54f
8:24 8 16 mph 1025.6mb 45f 54f
8:18 13 17 mph 1025.6mb 45f 54f
8:12 11 16 mph 1025.6mb 45f 54f
8:06 15 17 mph 1025.4mb 45f 54f
8:00 13 16 mph 1025.3mb 45f 53f
7:54 16 18 mph 1025.3mb 45f 53f
7:48 14 17 mph 1025.2mb 45f 53f
7:42 14 16 mph 1025.2mb 45f 53f
7:36 14 16 mph 1025.1mb 45f 53f
7:30 10 16 mph 1025.1mb 45f 53f
7:24 14 16 mph 1025mb 45f 53f
7:18 13 17 mph 1024.9mb 45f 53f
7:12 9 15 mph 1024.8mb 45f 53f
7:06 11 16 mph 1024.8mb 45f 53f
7:00 10 14 mph 1024.7mb 45f 53f
6:48 10 13 mph 1024.5mb 45f 52f
6:42 11 14 mph 1024.4mb 45f 52f
6:36 8 11 mph 1024.3mb 45f 52f
6:30 8 10 mph 1024.1mb 45f 52f
6:24 9 10 mph 1024mb 45f 52f
6:18 9 10 mph 1023.9mb 45f 51f
6:12 8 10 mph 1023.9mb 45f 51f
6:06 8 10 mph 1023.8mb 45f 51f
6:00 7 9 mph 1023.9mb 45f 51f
5:54 8 10 mph 1023.8mb 45f 51f
5:48 8 10 mph 1023.5mb 45f 51f
5:42 8 11 mph 1023.2mb 45f 51f
5:36 8 9 mph 1023.1mb 45f 51f
5:30 8 9 mph 1023.1mb 45f 51f
5:24 6 8 mph 1023mb 45f 51f
5:18 7 10 mph 1022.8mb 45f 52f
5:12 9 11 mph 1022.7mb 45f 52f
5:06 10 13 mph 1022.5mb 45f 52f
5:00 10 11 mph 1022.4mb 45f 52f
4:54 8 11 mph 1022.4mb 45f 52f
4:48 7 14 mph 1022.1mb 45f 53f
4:42 9 13 mph 1022.1mb 45f 53f
4:36 9 13 mph 1022.1mb 45f 53f
4:30 9 15 mph 1021.9mb 45f 53f
4:24 11 14 mph 1021.7mb 46f 53f
4:18 9 13 mph 1021.7mb 46f 53f
4:12 9 11 mph 1021.5mb 46f 53f
4:06 8 10 mph 1021.5mb 46f 53f
4:00 8 10 mph 1021.4mb 46f 53f
3:54 6 9 mph 1021.4mb 46f 53f
3:48 6 9 mph 1021.4mb 46f 53f
3:42 2 5 mph 1021.3mb 46f 53f
3:36 2 5 mph 1021.2mb 46f 53f
3:30 3 6 mph 1021mb 47f 53f
3:24 5 6 mph 1020.9mb 47f 53f
3:18 6 6 mph 1020.9mb 47f 53f
3:12 6 6 mph 1020.8mb 47f 53f
3:06 6 7 mph 1020.8mb 48f 53f
3:00 7 8 mph 1020.7mb 49f 53f
2:54 7 8 mph 1020.5mb 50f 54f
2:48 7 8 mph 1020.5mb 51f -
2:42 5 7 mph 1020.7mb 51f -
2:36 5 7 mph 1020.7mb 52f -
2:30 6 8 mph 1020.6mb 53f 54f
2:24 7 9 mph 1020.7mb 53f 55f
2:18 7 8 mph 1020.6mb 53f 55f
2:12 7 9 mph 1020.5mb 53f 55f
2:06 6 9 mph 1020.5mb 53f 55f
2:00 9 13 mph 1020.4mb 52f 55f
1:54 10 13 mph 1020.4mb 52f 55f
1:48 9 13 mph 1020.4mb 51f -
1:42 8 11 mph 1020.4mb 50f -
1:36 6 9 mph 1020.3mb 50f -
1:30 7 10 mph 1020.1mb 49f 55f
1:24 8 10 mph 1020.2mb 49f 55f
1:18 6 11 mph 1020.3mb 49f 55f
1:12 6 8 mph 1020.3mb 49f 55f
1:06 5 6 mph 1020.2mb 49f 55f
1:00 5 7 mph 1020mb 49f 55f
12:54 7 10 mph 1019.8mb 49f 55f
12:48 7 8 mph 1019.7mb 49f 55f
12:42 8 9 mph 1019.7mb 49f 55f
12:36 6 9 mph 1019.6mb 49f 55f
12:30 6 7 mph 1019.5mb 49f 55f
12:24 6 9 mph 1019.5mb 49f 55f
12:18 5 7 mph 1019.3mb 49f 55f
12:12 6 7 mph 1019.1mb 49f 55f
12:06 6 6 mph 1019mb 48f 55f
12:00 3 5 mph 1019mb 48f 56f
vie 05/19 11:54  -  3 mph 1019mb 48f 56f
11:48  -  2 mph 1018.9mb 48f 55f
11:42 1 3 mph 1018.9mb 48f 55f
11:36 5 7 mph 1018.6mb 48f 56f
11:30 6 7 mph 1018.3mb 48f 56f
11:24 6 8 mph 1018.2mb 48f 56f
11:18 6 8 mph 1018.1mb 48f 56f
11:12 6 10 mph 1018.1mb 48f 56f
11:06 8 10 mph 1017.9mb 48f 56f
11:00 8 10 mph 1017.8mb 47f 56f
10:54 9 11 mph 1017.9mb 47f 57f
10:48 7 10 mph 1017.9mb 47f 57f
10:42 9 11 mph 1017.8mb 47f 57f
10:36 8 13 mph 1017.6mb 47f 57f
10:30 8 11 mph 1017.5mb 47f 57f
10:24 8 13 mph 1017.4mb 46f 58f
10:18 9 17 mph 1017.2mb 46f 58f
10:12 10 15 mph 1017mb 46f 58f
10:06 14 17 mph 1016.8mb 46f 58f
10:00 15 21 mph 1016.8mb 46f 58f
9:54 14 22 mph 1016.9mb 46f 59f
9:48 15 24 mph 1016.8mb 46f 59f
9:42 18 25 mph 1016.7mb 46f 59f
9:36 15 20 mph 1016.7mb 46f 59f
9:30 17 24 mph 1016.6mb 46f 60f
9:24 10 15 mph 1016.6mb 46f 60f
9:18 13 18 mph 1016.6mb 46f 60f
9:12 13 17 mph 1016.3mb 46f 61f
9:06 14 18 mph 1016.1mb 46f 61f
9:00 11 18 mph 1015.9mb 46f 61f
8:54 15 21 mph 1015.6mb 46f 62f
8:48 14 17 mph 1015.2mb 46f 62f
8:42 15 23 mph 1015mb 46f 62f
8:36 17 21 mph 1014.9mb 46f 63f
8:30 13 18 mph 1014.7mb 46f 63f
8:24 20 24 mph 1014.5mb 46f 63f
8:18 20 28 mph 1014.3mb 46f 64f
8:12 22 28 mph 1014.1mb 46f 65f
8:06 18 25 mph 1014mb 46f 65f
8:00 16 21 mph 1013.9mb 46f 66f
7:54 14 20 mph 1013.9mb 45f 66f
7:48 14 21 mph 1013.8mb 45f 67f
7:42 15 18 mph 1013.6mb 45f 68f
7:36 16 24 mph 1013.3mb 45f 69f
7:30 18 31 mph 1013mb 45f 69f
7:24 23 30 mph 1012.7mb 45f 70f
7:12 18 26 mph 1012.4mb 45f 71f
7:06 15 21 mph 1012.3mb 45f 71f
7:00 16 22 mph 1012.2mb 45f 71f
6:54 13 26 mph 1012.1mb 45f 71f
6:48 15 21 mph 1012mb 45f 71f
6:42 16 22 mph 1011.9mb 45f 72f
6:36 15 23 mph 1011.8mb 45f 72f
6:30 15 28 mph 1011.6mb 45f 72f
6:24 15 24 mph 1011.6mb 45f 72f
6:18 16 25 mph 1011.5mb 45f 72f
6:12 15 24 mph 1011.4mb 45f 73f
6:06 15 23 mph 1011.2mb 45f 73f
6:00 15 29 mph 1011.1mb 45f 72f
5:54 16 33 mph 1011mb 45f 72f
5:48 16 31 mph 1010.9mb 45f 73f
5:42 25 33 mph 1010.8mb 45f 72f
5:36 15 25 mph 1010.8mb 45f 74f
5:30 22 30 mph 1010.7mb 45f 73f
5:24 20 29 mph 1010.7mb 45f 74f
5:18 15 22 mph 1010.7mb 45f 74f
5:12 20 29 mph 1010.5mb 45f 74f
5:06 20 32 mph 1010.5mb 45f 74f
5:00 24 33 mph 1010.4mb 45f 74f
4:54 13 24 mph 1010.5mb 45f 75f
4:48 15 24 mph 1010.3mb 45f 75f
4:42 17 24 mph 1010.3mb 45f 74f
4:36 18 23 mph 1009.9mb 45f 75f
4:30 13 23 mph 1009.9mb 45f 76f
4:24 15 21 mph 1009.8mb 45f 76f
4:18 16 26 mph 1009.7mb 45f 76f
4:12 14 24 mph 1009.6mb 45f 76f
4:06 14 21 mph 1009.6mb 45f 77f
4:00 17 26 mph 1009.4mb 45f 77f
3:54 16 26 mph 1009.3mb 45f 77f
3:48 21 29 mph 1009.1mb 45f 77f
3:42 17 28 mph 1008.8mb 45f 78f
3:36 16 24 mph 1008.8mb 45f 79f
3:30 22 30 mph 1008.6mb 45f 80f
3:24 18 24 mph 1008.4mb 46f 81f
3:18 22 28 mph 1008.3mb 46f 81f
3:12 16 23 mph 1008.2mb 46f 81f
3:06 11 24 mph 1008mb 46f 82f
3:00 14 26 mph 1007.9mb 46f 82f
2:54 14 21 mph 1007.8mb 46f 83f
2:48 21 30 mph 1007.8mb 46f 82f
2:42 18 25 mph 1007.8mb 47f 82f
2:36 15 29 mph 1007.6mb 47f 82f
2:30 17 22 mph 1007.6mb 48f 82f
2:24 13 23 mph 1007.6mb 49f 82f
2:18 16 21 mph 1007.6mb 50f 82f
2:12 15 25 mph 1007.6mb 52f 82f
2:06 14 25 mph 1007.5mb 55f 83f
2:00 17 29 mph 1007.5mb 55f 84f
1:54 15 23 mph 1007.5mb 56f 84f
1:48 17 25 mph 1007.5mb 56f 83f
1:42 21 25 mph 1007.5mb 56f 83f
1:36 16 25 mph 1007.4mb 56f 84f
1:30 17 25 mph 1007.3mb 56f 84f
1:24 13 21 mph 1007.4mb 55f 83f
1:18 13 31 mph 1007.4mb 53f 84f
1:12 18 24 mph 1007.2mb 53f 83f
1:06 16 23 mph 1007.3mb 52f 83f
1:00 14 22 mph 1007.3mb 52f 83f
12:54 14 21 mph 1007.2mb 52f 84f
12:48 11 18 mph 1007.2mb 52f 83f
12:42 11 18 mph 1007.1mb 52f 83f
12:36 18 25 mph 1006.9mb 52f 82f
12:30 11 22 mph 1007.1mb 52f 82f
12:24 14 18 mph 1007mb 51f 82f
12:18 13 25 mph 1007mb 51f 84f
12:12 14 21 mph 1007.1mb 51f 84f
12:06 18 29 mph 1007.2mb 51f 85f
12:00 16 25 mph 1007.1mb 51f 84f
11:54 16 24 mph 1007mb 51f 83f
11:48 13 25 mph 1007mb 51f 83f
11:42 20 25 mph 1006.9mb 51f 84f
11:36 16 30 mph 1006.9mb 51f 84f
11:30 18 26 mph 1006.9mb 51f 84f
11:24 16 29 mph 1007mb 51f 83f
11:18 10 18 mph 1007mb 50f 84f
11:12 13 18 mph 1007.2mb 50f 84f
11:06 16 22 mph 1007.1mb 50f 83f
11:00 13 21 mph 1007.2mb 50f 83f
10:54 10 26 mph 1007.1mb 50f 83f
10:48 17 24 mph 1007.1mb 49f 83f
10:42 15 25 mph 1007.1mb 49f 83f
10:36 20 28 mph 1007mb 49f 82f
10:30 16 29 mph 1007.3mb 49f 82f
10:24 17 25 mph 1007.2mb 49f 82f
10:18 15 25 mph 1007.1mb 49f 82f
10:12 15 28 mph 1007.3mb 49f 82f
10:06 11 25 mph 1007.3mb 48f 82f
10:00 14 26 mph 1007.4mb 48f 81f
9:54 18 25 mph 1007.4mb 48f 80f
9:48 13 17 mph 1007.4mb 48f 80f
9:42 11 23 mph 1007.4mb 48f 80f
9:36 15 20 mph 1007.5mb 48f 80f
9:30 13 20 mph 1007.4mb 47f 80f
9:24 14 25 mph 1007.4mb 47f 80f
9:18 11 26 mph 1007.4mb 47f 80f
9:12 16 29 mph 1007.4mb 47f 80f
9:06 9 18 mph 1007.4mb 47f 80f
9:00 16 20 mph 1007.4mb 47f 80f
8:54 13 24 mph 1007.6mb 47f 79f
8:48 9 20 mph 1007.6mb 47f 79f
8:42 10 20 mph 1007.5mb 47f 79f
8:36 8 20 mph 1007.6mb 47f 78f
8:30 13 17 mph 1007.5mb 47f 78f
8:24 13 17 mph 1007.5mb 47f 77f
8:18 9 16 mph 1007.6mb 47f 76f
8:12 9 14 mph 1007.5mb 47f 76f
8:06 8 13 mph 1007.6mb 47f 75f
8:00 10 16 mph 1007.7mb 47f 74f
7:54 9 14 mph 1007.7mb 47f 74f
7:48 9 16 mph 1007.7mb 47f 74f
7:42 11 16 mph 1007.6mb 47f 74f
7:36 13 17 mph 1007.7mb 46f 73f
7:30 10 15 mph 1007.7mb 46f 73f
7:24 7 17 mph 1007.8mb 46f 73f
7:18 10 16 mph 1007.7mb 46f 72f
7:12 9 16 mph 1007.6mb 46f 72f
7:06 7 11 mph 1007.4mb 46f 72f
7:00 9 14 mph 1007.4mb 46f 71f
6:54 10 14 mph 1007.5mb 46f 71f
6:48 6 14 mph 1007.6mb 46f 71f
6:42 6 15 mph 1007.6mb 46f 71f
6:36 7 13 mph 1007.5mb 46f 71f
6:30 7 15 mph 1007.5mb 46f 70f
6:24 6 10 mph 1007.5mb 46f 70f
6:18 7 13 mph 1007.5mb 46f 70f
6:12 7 14 mph 1007.2mb 46f 70f
6:06 10 15 mph 1007mb 46f 70f
6:00 8 16 mph 1007mb 46f 70f
5:54 9 15 mph 1006.9mb 46f 70f
5:48 8 14 mph 1006.8mb 46f 70f
5:42 9 13 mph 1006.7mb 46f 70f
5:36 9 15 mph 1006.6mb 46f 69f
5:30 8 13 mph 1006.5mb 46f 69f
5:24 9 13 mph 1006.5mb 46f 69f
5:18 8 15 mph 1006.5mb 46f 69f
5:12 10 14 mph 1006.4mb 46f 69f
5:06 7 14 mph 1006.2mb 46f 69f
5:00 10 14 mph 1006.1mb 46f 69f
4:54 9 15 mph 1006mb 46f 69f
4:48 6 15 mph 1005.9mb 46f 69f
4:42 10 16 mph 1006.1mb 46f 69f
4:36 10 17 mph 1006.1mb 46f 70f
4:30 8 13 mph 1006.2mb 46f 69f
4:24 7 13 mph 1006.3mb 46f 69f
4:18 9 15 mph 1006.4mb 46f 69f
4:12 9 16 mph 1006.3mb 46f 69f
4:06 9 13 mph 1006.2mb 46f 69f
4:00 8 14 mph 1006.3mb 46f 69f
3:54 9 13 mph 1006.1mb 46f 69f
3:48 9 13 mph 1006.3mb 46f 70f
3:42 9 17 mph 1006.4mb 46f 70f
3:36 9 15 mph 1006.5mb 46f 70f
3:30 8 15 mph 1006.5mb 46f 70f
3:24 8 14 mph 1006.6mb 46f 70f
3:18 8 15 mph 1006.7mb 46f 70f
3:12 8 13 mph 1006.7mb 47f 70f
3:06 9 14 mph 1006.7mb 47f 70f
3:00 8 15 mph 1006.8mb 47f 70f
2:54 8 14 mph 1006.8mb 47f 70f
2:48 9 13 mph 1006.8mb 47f 70f
2:42 7 11 mph 1006.7mb 47f 71f
2:36 8 13 mph 1006.7mb 48f 71f
2:30 8 14 mph 1006.6mb 49f 71f
2:24 9 14 mph 1006.7mb 49f 71f
2:18 7 15 mph 1006.8mb 50f 71f
2:12 8 18 mph 1006.9mb 50f 71f
2:06 10 15 mph 1007mb 50f 72f
2:00 9 16 mph 1007.1mb 50f 72f
1:54 10 15 mph 1007mb 51f 72f
1:48 10 18 mph 1006.9mb 52f -
1:42 13 18 mph 1006.8mb 54f -
1:36 9 15 mph 1006.9mb 54f -
1:30 10 17 mph 1006.9mb 55f 72f
1:24 11 16 mph 1007mb 55f 72f
1:18 9 17 mph 1007.1mb 55f 72f
1:12 11 20 mph 1007.1mb 55f 72f
1:06 9 14 mph 1007.1mb 55f 72f
1:00 10 20 mph 1007.2mb 55f 72f
12:54 11 16 mph 1007.3mb 54f 73f
12:48 10 16 mph 1007.3mb 54f 73f
12:42 9 14 mph 1007.4mb 54f 73f
12:36 7 13 mph 1007.4mb 54f 73f
12:30 7 13 mph 1007.4mb 53f 73f
12:24 8 13 mph 1007.6mb 53f 73f
12:18 9 16 mph 1007.4mb 53f 74f
12:12 10 17 mph 1007.3mb 53f 74f
12:06 14 25 mph 1007.4mb 53f 76f
12:00 17 29 mph 1007.4mb 53f 78f
jue 05/18 11:54 20 31 mph 1007.6mb 52f 78f
11:48 17 31 mph 1007.1mb 52f 80f
11:42 18 31 mph 1006.9mb 52f 82f
11:36 14 24 mph 1006.6mb 52f 83f
11:30 15 25 mph 1006.3mb 52f 83f
11:24 16 23 mph 1006.3mb 52f 83f
11:18 13 22 mph 1006.2mb 52f 84f
11:12 13 23 mph 1006.3mb 52f 84f
11:06 14 26 mph 1006.1mb 51f 84f
11:00 18 29 mph 1006mb 51f 84f
10:54 16 28 mph 1006.1mb 51f 84f
10:48 11 22 mph 1006.2mb 51f 84f
10:42 14 22 mph 1006mb 51f 84f
10:36 14 22 mph 1005.7mb 51f 84f
10:30 13 21 mph 1005.7mb 51f 84f
10:24 15 25 mph 1005.7mb 51f 84f
10:18 14 21 mph 1005.8mb 50f 84f
10:12 14 21 mph 1005.8mb 50f 84f
10:06 13 17 mph 1005.7mb 50f 83f
10:00 13 16 mph 1005.7mb 50f 83f
9:54 13 16 mph 1005.7mb 50f 83f
9:48 13 15 mph 1005.7mb 51f 83f
9:42 11 16 mph 1005.7mb 52f 83f
9:36 10 11 mph 1005.4mb 52f 83f
9:30 10 14 mph 1005.3mb 51f 82f
9:24 9 11 mph 1005.3mb 51f 81f
9:18 6 8 mph 1005.3mb 51f 76f
9:12 5 6 mph 1005.3mb 51f -
9:06 2 6 mph 1005.4mb 50f -
9:00  -  2 mph 1005.3mb 50f -
8:54 1 2 mph 1005.3mb 50f -
8:48  -  0 mph 1005.3mb 50f -
8:42  -  1 mph 1005.2mb 50f -
8:36  -  1 mph 1005.2mb 50f -
8:30  -  1 mph 1005.1mb 50f -
8:24 2 3 mph 1005.1mb 49f -
8:18 3 5 mph 1005.2mb 49f -
8:12 3 5 mph 1005.3mb 49f -
8:06 5 5 mph 1005.3mb 48f -
8:00 3 5 mph 1005.3mb 48f -
7:54 5 6 mph 1005.3mb 48f -
7:48 5 5 mph 1005.2mb 48f -
7:42 1 5 mph 1005.2mb 48f -
7:36 2 6 mph 1005.1mb 48f -
7:30 2 3 mph 1005.1mb 48f -
7:24  -  2 mph 1005.2mb 48f -
7:18 2 2 mph 1005.2mb 48f -
7:12  -  2 mph 1005.2mb 48f -
7:06 2 6 mph 1005.2mb 48f -
7:00 6 8 mph 1005.2mb 47f -
6:54 7 9 mph 1005.1mb 47f -
6:48 6 8 mph 1005.1mb 47f -
6:42 8 10 mph 1005.1mb 47f -
6:36 6 8 mph 1005.2mb 47f -
6:30 7 9 mph 1005.3mb 47f -
6:24 7 10 mph 1005.4mb 47f -
6:18 6 8 mph 1005.4mb 47f -
6:12 7 9 mph 1005.5mb 47f -
6:06 8 10 mph 1005.6mb 47f -
6:00 8 11 mph 1005.8mb 47f -
5:54 8 11 mph 1006mb 47f -